CZ-6A DEB, 61074

Orbit data source: Space-Track

CZ-6A DEB, 61074 is space debris in LEO originally from a launch on Tue, 06 Aug 2024 UTC launched from the Taiyaun Space Center, China (TSC). Debris objects in space refer to the collection of defunct objects orbiting the Earth. Examples of debris include non-operational satellites, rocket bodies, and fragments generated from explosions, collisions, or faulty payload assembly.

Loading next visibility...
Identifier
61074, 2024-140MQ
Orbit
LEO
Country
Flag of CNCN / PRC
Related business
Manufacturer
SAST
Mission
Spacecraft
Bus & Motor
Unknown
Mass
Unknown
Launch date (UTC)
2024-08-06 (1 year ago)
Launch vehicle
Unknown
Launch site
Taiyaun Space Center, China (TSC)
Object type
Payload
Rocket body
Debris
Shape & HBR
Unknown shape, 0.1 m
Radar Cross Section
Small (<0.1 m²)

Expand to show TLE details & history
Last TLE update: 1 day ago

TLE from 1 day ago
0 CZ-6A DEB
1 61074U 24140MQ  25312.22760066  .00004721  00000-0  94741-3 0  9993
2 61074  88.9888 296.1775 0126014 306.5234  52.4424 14.56609050 64381
Epoch: 2025-11-08T05:27Z
TLE epoch observation values (Epoch: 2025-11-08T05:27:44.697Z)
Latitude
0.00003°
Longitude
166.58103°
Altitude
653.553 km
Speed
7.559 km/s
True Right ascension
19h 44m 42s
True Declination
0° 00' 00"
Sunlit
Object was in daylight at epoch
Visualization orbit readout
Latitude
Unknown
Longitude
Unknown
Altitude
Unknown
Speed
Unknown
Apparent Right ascension
Unknown
Apparent Declination
Unknown
Sunlit
N/A
Visualization observer readout
Local Sidereal Time
11:28:46
Azimuth
Unknown
Elevation
Unknown
Doppler factor
Unknown
Orbital elements
Apogee altitude
790.25 km
Perigee altitude
611.835 km
Semi-major axis
7,079.18 km
Eccentricity
0.0126
Inclination
88.9888°
RAAN
296.1775°
Arg. of periapsis
306.5234°
True anomaly
53.59814°
Mean anomaly
52.4424°
Eccentric anomaly
53.01917°
Mean motion
3.64392 °/min
Orbital period
98.79 mins
BSTAR
0.00094741
Loading maneuver chart data...
Computing Atmospheric mass density...
Loading historical data...
Loading historical data...
Loading historical data...
Loading historical data...
Loading historical data...
Loading historical data...
Loading historical data...

Documentation

Showing up to 5 results
|